| time (UTC) | temp F | wind direction | speed MPH | gust MPH | rain 1hr in | rain 24hr in | rain mn in | humidity % | barometer mb |
| 20260902222604 | 0 | 0.0 | 0.0 | 0.00 | 0.00 | 0.00 | 1026.6 | ||
| 20260902221602 | 0 | 0.0 | 0.0 | 0.00 | 0.00 | 0.00 | 1026.7 | ||
| 20260902220620 | 57 | 338 | 2.0 | 2.0 | 0.00 | 0.00 | 0.00 | 84 | 1022.6 |
| 20260902215618 | 57 | 0.0 | 2.0 | 0.00 | 0.00 | 0.00 | 83 | 1024.0 | |
| 20260902214556 | 57 | 0.0 | 2.0 | 0.00 | 0.00 | 0.00 | 83 | 1022.6 | |
| 20260902213554 | 57 | 0.0 | 2.0 | 0.00 | 0.00 | 0.00 | 84 | 1023.2 | |
| 20260902212552 | 57 | 338 | 0.0 | 2.0 | 0.00 | 0.00 | 0.00 | 83 | 1022.6 |
| 20260902211610 | 57 | 338 | 0.0 | 2.0 | 0.00 | 0.00 | 0.00 | 83 | 1022.5 |
| 20260902210548 | 57 | 338 | 1.0 | 2.0 | 0.00 | 0.00 | 0.00 | 83 | 1022.4 |
| 20260902205545 | 58 | 0.0 | 2.0 | 0.00 | 0.00 | 0.00 | 81 | 1022.6 | |
| 20260902204543 | 58 | 338 | 0.0 | 2.0 | 0.00 | 0.00 | 0.00 | 79 | 1022.6 |
| 20260902203541 | 59 | 338 | 1.0 | 2.0 | 0.00 | 0.00 | 0.00 | 78 | 1022.5 |
| 20260902202559 | 59 | 0.0 | 2.0 | 0.00 | 0.00 | 0.00 | 77 | 1022.4 | |
| 20260902201537 | 60 | 338 | 0.0 | 2.0 | 0.00 | 0.00 | 0.00 | 77 | 1022.4 |
| 20260902200536 | 59 | 338 | 1.0 | 2.0 | 0.00 | 0.00 | 0.00 | 77 | 1022.3 |
| 20260902195533 | 60 | 338 | 3.0 | 4.0 | 0.00 | 0.00 | 0.00 | 76 | 1022.4 |
| 20260902194532 | 61 | 338 | 1.0 | 2.0 | 0.00 | 0.00 | 0.00 | 73 | 1022.6 |
| 20260902193529 | 61 | 338 | 0.0 | 2.0 | 0.00 | 0.00 | 0.00 | 73 | 1022.6 |
| 20260902192527 | 61 | 338 | 0.0 | 2.0 | 0.00 | 0.00 | 0.00 | 73 | 1022.4 |
| 20260902191526 | 0 | 0.0 | 0.0 | 0.00 | 0.00 | 0.00 | 1026.4 | ||
| 20260902190524 | 62 | 338 | 1.0 | 2.0 | 0.00 | 0.00 | 0.00 | 71 | 1022.4 |
| 20260902185522 | 64 | 0.0 | 2.0 | 0.00 | 0.00 | 0.00 | 66 | 1022.5 | |
| 20260902184519 | 0 | 0.0 | 0.0 | 0.00 | 0.00 | 0.00 | 1026.2 | ||
| 20260902183537 | 64 | 338 | 1.0 | 2.0 | 0.00 | 0.00 | 0.00 | 67 | 1023.5 |
| 20260902182535 | 64 | 338 | 1.0 | 2.0 | 0.00 | 0.00 | 0.00 | 67 | 1022.8 |
| 20260902181653 | 0 | 0.0 | 0.0 | 0.00 | 0.00 | 0.00 | 1025.9 | ||
| 20260902180611 | 0 | 0.0 | 0.0 | 0.00 | 0.00 | 0.00 | 1025.8 | ||
| 20260902175609 | 67 | 338 | 1.0 | 2.0 | 0.00 | 0.00 | 0.00 | 63 | 1023.9 |
| 20260902174607 | 67 | 338 | 1.0 | 2.0 | 0.00 | 0.00 | 0.00 | 63 | 1022.0 |
| 20260902173605 | 68 | 338 | 1.0 | 2.0 | 0.00 | 0.00 | 0.00 | 62 | 1022.0 |
| 20260902172603 | 68 | 338 | 1.0 | 4.0 | 0.00 | 0.00 | 0.00 | 62 | 1021.9 |
| 20260902171601 | 69 | 338 | 1.0 | 4.0 | 0.00 | 0.00 | 0.00 | 61 | 1022.0 |
| 20260902170559 | 70 | 338 | 2.0 | 4.0 | 0.00 | 0.00 | 0.00 | 60 | 1022.1 |
| 20260902165557 | 70 | 338 | 2.0 | 4.0 | 0.00 | 0.00 | 0.00 | 58 | 1022.1 |
| 20260902164555 | 71 | 338 | 2.0 | 4.0 | 0.00 | 0.00 | 0.00 | 57 | 1022.6 |
| 20260902163613 | 71 | 338 | 2.0 | 4.0 | 0.00 | 0.00 | 0.00 | 56 | 1022.1 |
| 20260902162551 | 70 | 338 | 3.0 | 4.0 | 0.00 | 0.00 | 0.00 | 56 | 1022.0 |
| 20260902161609 | 71 | 330 | 3.0 | 8.0 | 0.00 | 0.00 | 0.00 | 55 | 1022.1 |
| 20260902160547 | 71 | 334 | 4.0 | 9.0 | 0.00 | 0.00 | 0.00 | 55 | 1022.1 |
| 20260902155605 | 71 | 334 | 3.0 | 4.0 | 0.00 | 0.00 | 0.00 | 55 | 1022.1 |
| 20260902154543 | 72 | 338 | 2.0 | 4.0 | 0.00 | 0.00 | 0.00 | 57 | 1022.2 |
| 20260902153621 | 72 | 338 | 3.0 | 6.0 | 0.00 | 0.00 | 0.00 | 57 | 1022.2 |
| 20260902152539 | 72 | 338 | 2.0 | 6.0 | 0.00 | 0.00 | 0.00 | 57 | 1022.1 |
| 20260902151537 | 72 | 338 | 3.0 | 6.0 | 0.00 | 0.00 | 0.00 | 56 | 1022.1 |
| 20260902150535 | 72 | 338 | 3.0 | 4.0 | 0.00 | 0.00 | 0.00 | 56 | 1022.2 |
| 20260902145533 | 73 | 334 | 3.0 | 7.0 | 0.00 | 0.00 | 0.00 | 57 | 1022.3 |
| 20260902144531 | 73 | 338 | 2.0 | 4.0 | 0.00 | 0.00 | 0.00 | 57 | 1022.4 |
| 20260902143529 | 72 | 318 | 2.0 | 6.0 | 0.00 | 0.00 | 0.00 | 56 | 1022.3 |
| 20260902142527 | 73 | 334 | 2.0 | 4.0 | 0.00 | 0.00 | 0.00 | 59 | 1022.4 |
| 20260902141524 | 70 | 338 | 3.0 | 7.0 | 0.00 | 0.00 | 0.00 | 62 | 1022.2 |
| 20260902140523 | 72 | 338 | 2.0 | 7.0 | 0.00 | 0.00 | 0.00 | 63 | 1022.4 |
| 20260902135521 | 70 | 323 | 3.0 | 6.0 | 0.00 | 0.00 | 0.00 | 65 | 1022.4 |
| 20260902134518 | 69 | 338 | 3.0 | 4.0 | 0.00 | 0.00 | 0.00 | 66 | 1022.3 |
| 20260902133517 | 71 | 315 | 3.0 | 4.0 | 0.00 | 0.00 | 0.00 | 65 | 1025.4 |
| 20260902132515 | 68 | 338 | 2.0 | 4.0 | 0.00 | 0.00 | 0.00 | 70 | 1022.8 |
| 20260902131613 | 68 | 338 | 2.0 | 4.0 | 0.00 | 0.00 | 0.00 | 70 | 1024.7 |
| 20260902130611 | 70 | 338 | 3.0 | 4.0 | 0.00 | 0.00 | 0.00 | 67 | 1022.4 |
| 20260902125609 | 0 | 0.0 | 0.0 | 0.00 | 0.00 | 0.00 | 1025.9 | ||
| 20260902124607 | 67 | 338 | 1.0 | 2.0 | 0.00 | 0.00 | 0.00 | 74 | 1022.3 |
| 20260902123605 | 66 | 338 | 1.0 | 2.0 | 0.00 | 0.00 | 0.00 | 74 | 1022.3 |
| 20260902122602 | 67 | 338 | 3.0 | 4.0 | 0.00 | 0.00 | 0.00 | 73 | 1022.9 |
| 20260902121601 | 68 | 338 | 1.0 | 2.0 | 0.00 | 0.00 | 0.00 | 71 | 1024.9 |
| 20260902120558 | 68 | 338 | 1.0 | 2.0 | 0.00 | 0.00 | 0.00 | 71 | 1022.4 |
| 20260902115617 | 0 | 0.0 | 0.0 | 0.00 | 0.00 | 0.00 | 1026.0 | ||
| 20260902114554 | 0 | 0.0 | 0.0 | 0.00 | 0.00 | 0.00 | 1026.1 | ||
| 20260902113552 | 0 | 0.0 | 0.0 | 0.00 | 0.00 | 0.00 | 1026.2 | ||
| 20260902112550 | 0 | 0.0 | 0.0 | 0.00 | 0.00 | 0.00 | 1026.2 | ||
| 20260902111548 | 0 | 0.0 | 0.0 | 0.00 | 0.00 | 0.00 | 1026.3 | ||
| 20260902110546 | 0 | 0.0 | 0.0 | 0.00 | 0.00 | 0.00 | 1026.4 | ||
| 20260902105544 | 0 | 0.0 | 0.0 | 0.00 | 0.00 | 0.00 | 1026.5 | ||
| 20260902104542 | 0 | 0.0 | 0.0 | 0.00 | 0.00 | 0.00 | 1026.4 | ||
| 20260902103540 | 0 | 0.0 | 0.0 | 0.00 | 0.00 | 0.00 | 1026.5 | ||
| 20260902102538 | 0 | 0.0 | 0.0 | 0.00 | 0.00 | 0.00 | 1026.7 | ||
| 20260902101536 | 66 | 0.0 | 0.0 | 0.00 | 0.00 | 0.00 | 77 | 1022.9 | |
| 20260902100534 | 66 | 338 | 2.0 | 4.0 | 0.00 | 0.00 | 0.00 | 76 | 1022.9 |
| 20260902095532 | 66 | 338 | 2.0 | 2.0 | 0.00 | 0.00 | 0.00 | 76 | 1022.9 |
| 20260902094530 | 0 | 0.0 | 0.0 | 0.00 | 0.00 | 0.00 | 1026.5 | ||
| 20260902093528 | 64 | 338 | 2.0 | 2.0 | 0.00 | 0.00 | 0.00 | 77 | 1024.7 |
| 20260902092526 | 64 | 338 | 2.0 | 2.0 | 0.00 | 0.00 | 0.00 | 77 | 1022.8 |
| 20260902091525 | 65 | 338 | 1.0 | 2.0 | 0.00 | 0.00 | 0.00 | 76 | 1022.9 |
| 20260902090522 | 65 | 338 | 1.0 | 4.0 | 0.00 | 0.00 | 0.00 | 77 | 1022.9 |
| 20260902085520 | 64 | 338 | 2.0 | 6.0 | 0.00 | 0.00 | 0.00 | 77 | 1022.7 |
| 20260902084518 | 63 | 338 | 2.0 | 4.0 | 0.00 | 0.00 | 0.00 | 79 | 1022.6 |
| 20260902083516 | 63 | 338 | 1.0 | 2.0 | 0.00 | 0.00 | 0.00 | 81 | 1022.6 |
| 20260902082614 | 63 | 338 | 1.0 | 2.0 | 0.00 | 0.00 | 0.00 | 84 | 1022.7 |
| 20260902081612 | 60 | 338 | 1.0 | 4.0 | 0.00 | 0.00 | 0.00 | 88 | 1022.7 |
| 20260902080630 | 59 | 0.0 | 2.0 | 0.00 | 0.00 | 0.00 | 90 | 1022.6 | |
| 20260902075608 | 58 | 338 | 1.0 | 2.0 | 0.00 | 0.00 | 0.00 | 91 | 1022.7 |
| 20260902074606 | 58 | 338 | 0.0 | 2.0 | 0.00 | 0.00 | 0.00 | 92 | 1022.7 |
| 20260902073625 | 0 | 0.0 | 0.0 | 0.00 | 0.00 | 0.00 | 1026.8 | ||
| 20260902072622 | 57 | 0.0 | 0.0 | 0.00 | 0.00 | 0.00 | 95 | 1022.5 | |
| 20260902071600 | 57 | 0.0 | 0.0 | 0.00 | 0.00 | 0.00 | 96 | 1022.5 | |
| 20260902070558 | 56 | 0.0 | 0.0 | 0.00 | 0.00 | 0.00 | 97 | 1022.6 | |
| 20260902065556 | 56 | 0.0 | 0.0 | 0.00 | 0.00 | 0.00 | 97 | 1022.5 | |
| 20260902064554 | 55 | 338 | 0.0 | 2.0 | 0.00 | 0.00 | 0.00 | 98 | 1022.4 |
| 20260902063552 | 54 | 338 | 1.0 | 2.0 | 0.00 | 0.00 | 0.00 | 98 | 1022.4 |
| 20260902062610 | 0 | 0.0 | 0.0 | 0.00 | 0.00 | 0.00 | 1026.7 | ||
| 20260902061548 | 0 | 0.0 | 0.0 | 0.00 | 0.00 | 0.00 | 1026.7 | ||
| 20260902060606 | 0 | 0.0 | 0.0 | 0.00 | 0.00 | 0.00 | 1026.8 | ||
| 20260902055544 | 0 | 0.0 | 0.0 | 0.00 | 0.00 | 0.00 | 1026.9 | ||
| 20260902054542 | 0 | 0.0 | 0.0 | 0.00 | 0.00 | 0.00 | 1026.9 | ||
| 20260902053600 | 0 | 0.0 | 0.0 | 0.00 | 0.00 | 0.00 | 1026.9 | ||
| 20260902052558 | 0 | 0.0 | 0.0 | 0.00 | 0.00 | 0.00 | 1026.9 | ||
| 20260902051536 | 0 | 0.0 | 0.0 | 0.00 | 0.00 | 0.00 | 1026.8 | ||
| 20260902050534 | 0 | 0.0 | 0.0 | 0.00 | 0.00 | 0.00 | 1026.6 | ||
| 20260902045552 | 0 | 0.0 | 0.0 | 0.00 | 0.00 | 0.00 | 1026.6 | ||
| 20260902044530 | 0 | 0.0 | 0.0 | 0.00 | 0.00 | 0.00 | 1026.6 | ||
| 20260902043548 | 0 | 0.0 | 0.0 | 0.00 | 0.00 | 0.00 | 1026.7 | ||
| 20260902042526 | 0 | 0.0 | 0.0 | 0.00 | 0.00 | 0.00 | 1026.8 | ||
| 20260902041524 | 0 | 0.0 | 0.0 | 0.00 | 0.00 | 0.00 | 1027.0 | ||
| 20260902040522 | 0 | 0.0 | 0.0 | 0.00 | 0.00 | 0.00 | 1026.9 | ||
| 20260902035520 | 0 | 0.0 | 0.0 | 0.00 | 0.00 | 0.00 | 1027.1 | ||
| 20260902034518 | 0 | 0.0 | 0.0 | 0.00 | 0.00 | 0.00 | 1027.0 | ||
| 20260902033515 | 0 | 0.0 | 0.0 | 0.00 | 0.00 | 0.00 | 1026.7 | ||
| 20260902032614 | 0 | 0.0 | 0.0 | 0.00 | 0.00 | 0.00 | 1026.9 | ||
| 20260902031612 | 0 | 0.0 | 0.0 | 0.00 | 0.00 | 0.00 | 1026.9 | ||
| 20260902030610 | 0 | 0.0 | 0.0 | 0.00 | 0.00 | 0.00 | 1027.2 | ||
| 20260902025607 | 0 | 0.0 | 0.0 | 0.00 | 0.00 | 0.00 | 1027.1 | ||
| 20260902024605 | 0 | 0.0 | 0.0 | 0.00 | 0.00 | 0.00 | 1027.2 | ||
| 20260902023603 | 0 | 0.0 | 0.0 | 0.00 | 0.00 | 0.00 | 1027.1 | ||
| 20260902022602 | 0 | 0.0 | 0.0 | 0.00 | 0.00 | 0.00 | 1027.2 | ||
| 20260902021600 | 0 | 0.0 | 0.0 | 0.00 | 0.00 | 0.00 | 1027.2 | ||
| 20260902020558 | 0 | 0.0 | 0.0 | 0.00 | 0.00 | 0.00 | 1027.1 | ||
| 20260902015556 | 0 | 0.0 | 0.0 | 0.00 | 0.00 | 0.00 | 1027.1 | ||
| 20260902014554 | 0 | 0.0 | 0.0 | 0.00 | 0.00 | 0.00 | 1027.1 | ||
| 20260902013552 | 0 | 0.0 | 0.0 | 0.00 | 0.00 | 0.00 | 1027.0 | ||
| 20260902012549 | 0 | 0.0 | 0.0 | 0.00 | 0.00 | 0.00 | 1027.0 | ||
| 20260902011547 | 0 | 0.0 | 0.0 | 0.00 | 0.00 | 0.00 | 1027.1 | ||
| 20260902010545 | 0 | 0.0 | 0.0 | 0.00 | 0.00 | 0.00 | 1027.0 | ||
| 20260902005543 | 0 | 0.0 | 0.0 | 0.00 | 0.00 | 0.00 | 1027.0 | ||
| 20260902004541 | 0 | 0.0 | 0.0 | 0.00 | 0.00 | 0.00 | 1027.1 | ||
| 20260902003539 | 53 | 0.0 | 0.0 | 0.00 | 0.02 | 0.00 | 97 | 1022.8 | |
| 20260902002537 | 53 | 0.0 | 0.0 | 0.00 | 0.04 | 0.00 | 97 | 1023.0 | |
| 20260902001535 | 53 | 338 | 0.0 | 2.0 | 0.00 | 0.04 | 0.00 | 97 | 1022.9 |
| 20260902000553 | 53 | 0.0 | 0.0 | 0.00 | 0.04 | 0.00 | 96 | 1023.1 | |
| 20260901235531 | 53 | 0.0 | 0.0 | 0.00 | 0.04 | 0.00 | 96 | 1023.1 | |
| 20260901234529 | 54 | 0.0 | 0.0 | 0.00 | 0.04 | 0.00 | 96 | 1022.9 | |
| 20260901232525 | 53 | 0.0 | 0.0 | 0.00 | 0.04 | 0.00 | 95 | 1023.0 | |
| 20260901231523 | 54 | 0.0 | 0.0 | 0.00 | 0.04 | 0.00 | 95 | 1023.0 | |
| 20260901230521 | 0 | 0.0 | 0.0 | 0.00 | 0.04 | 0.00 | 1027.3 | ||
| 20260901225519 | 54 | 0.0 | 0.0 | 0.00 | 0.04 | 0.00 | 95 | 1023.0 | |
| 20260901224517 | 55 | 0.0 | 0.0 | 0.00 | 0.04 | 0.00 | 95 | 1023.0 | |
| 20260901223515 | 55 | 0.0 | 0.0 | 0.00 | 0.04 | 0.00 | 94 | 1023.1 |